Regional Weather Roundup
Issued by NWS

Home | Current Version | Previous Version | Text Only | Print | Product List | Glossary On
Versions: 1 2 3 4 5 6 7 8 9 10 11 12 13 14 15 16 17 18 19 20 21 22 23 24 25 26 27 28 29 30 31 32 33 34 35 36 37 38 39 40 41 42 43 44 45 46 47 48 49 50
000
ASUS43 KMPX 060810
RWRMN
WEATHER ROUNDUP FOR MINNESOTA
NATIONAL WEATHER SERVICE TWIN CITIES/CHANHASSEN MN
300 AM CDT WED MAY 06 2015


NOTE: "FAIR" INDICATES FEW OR NO CLOUDS BELOW 12,000 FEET WITH NO
SIGNIFICANT WEATHER AND/OR OBSTRUCTIONS TO VISIBILITY. N/A MEANS
CURRENT SKY AND/OR WEATHER CONDITIONS ARE NOT AVAILABLE.

MNZ060>063-068>070-060900-
   Twin Cities Metro

CITY           SKY/WX    TMP DP  RH WIND       PRES   REMARKS
TWIN CITIES    CLOUDY    56  54  93 SE9       30.10F FOG
ST PAUL        CLOUDY    56  54  93 E9        30.10F
CRYSTAL        CLOUDY    58  54  86 SE10      30.08F
BLAINE         CLOUDY    57  55  94 SE9       30.10S
LAKEVILLE      CLOUDY    54  52  94 E8        30.08F FOG
EDEN PRAIRIE   CLOUDY    56  53  90 SE12      30.08F
SOUTH ST PAUL  CLOUDY    56  54  92 SE7       30.10F FOG
LAKE ELMO      CLOUDY    54  54 100 E6        30.12S
$$
MNZ001>005-007-008-013>017-022>024-027-028-060900-
   Northwest Minnesota

CITY           SKY/WX    TMP DP  RH WIND       PRES   REMARKS
BEMIDJI        PTCLDY    56  40  56 SE7       30.03F
HALLOCK        PTCLDY    57  43  58 SE12      29.96S
ROSEAU         CLEAR     55  39  54 SE6       30.00F
WARROAD        CLEAR     59  45  58 S9        30.01F
THIEF RVR FALL MOCLDY    57  45  62 SE9       30.00S
CROOKSTON      PTCLDY    55  48  76 S9        29.98F
FOSSTON        CLOUDY    59  45  58 SE7       30.01F
DETROIT LAKES  CLOUDY    59  54  82 S14       30.01F
MOORHEAD       CLOUDY    61  54  77 S14       29.98F
PARK RAPIDS    CLOUDY    61  46  57 SE14      30.03F
MAHNOMEN       CLOUDY    60  51  71 SE12      29.99F
$$
MNZ006-009>011-018-025>026-060900-
   North Central Minnesota

CITY           SKY/WX    TMP DP  RH WIND       PRES   REMARKS
BAUDETTE       CLEAR     53  33  46 SE8       30.04F
FLAG ISLAND    CLEAR     57  41  54 SE10      30.02S
INTL FALLS     CLEAR     45  29  53 SE6       30.08F
WASKISH        PTCLDY    52  39  62 CALM      30.05F
BIG FORK       CLEAR     52  30  43 SE6       30.09F
LONGVILLE      CLOUDY    57  43  58 SE9G16    30.05F
GRAND RAPIDS   PTCLDY    48  28  46 SE6       30.09F
CRANE LAKE     CLEAR     39  28  65 CALM      30.14F
ORR            CLEAR     48  25  40 SE1       30.09F
COOK           CLEAR     43  27  52 E3        30.12F
WALKER         CLOUDY    58  42  57 SE7       30.04F
$$
MNZ012-019>021-037-060900-
   Northeast Minnesota

CITY           SKY/WX    TMP DP  RH WIND       PRES   REMARKS
DULUTH         CLOUDY    49  29  46 E6        30.13F
ELY            CLEAR     39  27  60 CALM      30.14F
HIBBING        PTCLDY    38  26  62 CALM      30.11F
EVELETH        PTCLDY    36  28  75 CALM      30.13F
DULUTH HARBOR  PTCLDY    43  36  75 NE7       30.16S
TWO HARBORS    MOCLDY    46  32  57 N5        30.13F
SILVER BAY     PTCLDY    37  28  70 CALM      30.14F
GRAND MARAIS     N/A     40  30  67 CALM      30.18F
G MARAIS ARPRT CLEAR     36  25  64 CALM      30.19S
$$
MNZ029>031-032-039>041-046>048-054>057-064-060900-
   West Central Minnesota

CITY           SKY/WX    TMP DP  RH WIND       PRES   REMARKS
FERGUS FALLS   CLOUDY    59  54  82 SE14G22   30.00F
WHEATON        CLOUDY    54  52  94 SE22      30.00F
MORRIS         CLOUDY    55  54  94 SE18      30.00F
ALEXANDRIA     CLOUDY    55  52  89 SE13      30.04F
ELBOW LAKE     CLOUDY    57  54  90 SE16      30.00F
WADENA         CLOUDY    57  52  82 SE13      30.03F
GLENWOOD       CLOUDY    55  54  94 SE13      30.05S
APPLETON       CLOUDY    57  54  88 SE13      30.00F
BENSON         CLOUDY    55  52  88 S13G20    30.02F
ORTONVILLE     CLOUDY    55  52  88 SE15G22   29.98F
MADISON        CLOUDY    57  54  88 SE15      29.99F FOG
WILLMAR        CLOUDY    55  55 100 SE14      30.05F FOG
$$
MNZ033>034-036-042>043-049>051-058-059-060900-
   Central Minnesota

CITY           SKY/WX    TMP DP  RH WIND       PRES   REMARKS
ST CLOUD       CLOUDY    56  53  90 SE13      30.07F
SAUK CENTRE    CLOUDY    55  53  93 SE10      30.06S
PAYNESVILLE    CLOUDY    52  52  98 E12       30.06F
AITKIN         MOCLDY    61  45  55 SE13      30.07S
PINE RIVER     MOCLDY    59  48  67 SE13      30.09S
BRAINERD       LGT RAIN  58  48  69 SE8       30.07F
STAPLES        CLOUDY    55  52  88 SE7       30.05F
LONG PRAIRIE   CLOUDY    54  52  94 E9        30.06S
LITTLE FALLS   CLOUDY    55  50  82 SE6       30.07F
LITCHFIELD     CLOUDY    55  55 100 SE13      30.06F FOG
BUFFALO        CLOUDY    55  52  88 SE7       30.09F
MAPLE LAKE     CLOUDY    57  55  94 E7        30.08F
$$
MNZ037-044-045-052-053-060900-
   East Central Minnesota

CITY           SKY/WX    TMP DP  RH WIND       PRES   REMARKS
PRINCETON      CLOUDY    57  54  88 SE9       30.09F
MORA           CLOUDY    55  50  82 S6        30.11F
CAMBRIDGE      CLOUDY    57  48  72 E9        30.08F
RUSH CITY      CLOUDY    55  50  82 SE9       30.11F
MOOSE LAKE     CLOUDY    57  37  47 SE5       30.09F
HINCKLEY       CLOUDY    55  48  76 SE3       30.11F
CLOQUET        CLOUDY    46  30  53 E3        30.12F
MCGREGOR       CLOUDY    55  36  47 SE5       30.09S
$$
MNZ071>073-080-081-089-090-097-098-060900-
   Southwest Minnesota

CITY           SKY/WX    TMP DP  RH WIND       PRES   REMARKS
MONTEVIDEO     CLOUDY    55  55 100 S14       30.01F FOG
GRANITE FALLS  CLOUDY    56  54  94 E12G17    30.02F FOG
CANBY          CLOUDY    57  55  91 SE10      29.99F FOG
MARSHALL       CLOUDY    57  52  82 SE14      29.99F
REDWOOD FALLS  CLOUDY    56  54  93 SE12      30.02F FOG
OLIVIA         CLOUDY    52  50  93 SE10      30.02F FOG
PIPESTONE      CLOUDY    57  57 100 SE12      29.97F
WINDOM         CLOUDY    55  55 100 SE10G16   30.02F VSB 1/2
WORTHINGTON    CLOUDY    57  55  94 SE15      29.99F VSB 3/4
JACKSON        FOG       57  55  94 SE14      30.02F VSB 1/4
TRACY          CLOUDY    57  56  97 SE13      30.00F FOG
SLAYTON        LGT RAIN  56  56 100 SE14      30.00F VSB 1/2
$$
MNZ065>067-074>077-082>085-091>093-060900-
   South Central Minnesota

CITY           SKY/WX    TMP DP  RH WIND       PRES   REMARKS
MANKATO        CLOUDY    55  54  94 SE13      30.06F
NEW ULM        CLOUDY    55  55 100 SE12      30.04F FOG
ST JAMES       FOG       57  55  94 E13       30.04F VSB 1
FAIRMONT       CLOUDY    55  52  88 SE16      30.02F VSB 1
GLENCOE        CLOUDY    56  55  97 E9        30.07F FOG
FARIBAULT      CLOUDY    55  54  94 E6        30.08F FOG
OWATONNA       CLOUDY    55  54  94 SE13      30.07F FOG
WASECA         CLOUDY    54  52  94 SE13      30.07F FOG
ALBERT LEA     FOG       55  55 100 SE12      30.07F VSB 1/4
$$
MNZ078>079-086>088-094>096-060900-
   Southeast Minnesota

CITY           SKY/WX    TMP DP  RH WIND       PRES   REMARKS
ROCHESTER      FOG       53  53 100 SE16      30.11F VSB 1/4
RED WING       CLOUDY    55  54  94 SE10      30.10F FOG
STANTON        CLOUDY    55  53  91 SE6       30.08F FOG
DODGE CENTER   FOG       54  54 100 SE10      30.09F VSB 1/4
WINONA         CLOUDY    54  52  94 SE8       30.13F
AUSTIN         FOG       54  54 100 SE9       30.09F VSB 1/2
PRESTON        FOG       53  52  97 SE7       30.13S VSB 1/4
$$
ABBREVIATIONS USED IN REMARKS
   TC - TEMPERATURES IN CELSIUS
  WCI - WIND CHILL INDEX
   HX - HEAT INDEX
  VSB - VISIBILITY
$$


USA.gov is the U.S. government's official web portal to all federal, state and local government web resources and services.